User: anonymous   Login
Location: Ottawa
(45.4167°N, 75.7000°W)
Time: 06:01:24
(UTC-05:00)
Language:

ISS - Orbit

View from above orbital plane
View from above orbital plane
View from above satellite
View from above satellite

Ground track
Ground track

The orbit data is extracted from the following two-line orbital elements,

1 25544U 98067A   17352.51560558  .00016717  00000-0  10270-3 0  9066
2 25544  51.6394 199.4241 0003017 264.5030  95.5779 15.54161089 10419
Epoch (UTC): 18 December 2017 12:22:28
Eccentricity: 0.0003017
inclination: 51.6394°
perigee height: 402 km
apogee height: 406 km
right ascension of ascending node: 199.4241°
argument of perigee: 264.5030°
revolutions per day: 15.54161089
mean anomaly at epoch: 95.5779°
orbit number at epoch: 1041

The dashed part of the orbit path shows where the satellite is in the earth's shadow,  

DLR